When you browse on this site, cookies collect data to enhance your experience and personalize the content and advertising you see.
Visit our Privacy Policy to learn more. By continuing to use the site, you agree to this use of cookies and data.
  • In Romania
  • List of Countries
  • For 7 days
  • Water Temperature
  • Satellite Maps
  • Weather Map
  • Weather Widgets
  • user-avatar
    Login

    Hourly Weather Petra Dubrava

    Today, 20 June, Thursday

    Time Temperature Precipitation Wind Pressure Humidity
    00:00 +17°C° 0 mm 2 mps 745 mmHg 86%
    01:00 +16°C° 0 mm 2 mps 745 mmHg 86%
    02:00 +16°C° 0 mm 2 mps 746 mmHg 86%
    03:00 +16°C° 0 mm 1 mps 746 mmHg 86%
    04:00 +17°C° 0 mm 2 mps 746 mmHg 83%
    05:00 +18°C° 0 mm 2 mps 746 mmHg 81%
    06:00 +19°C° 0 mm 3 mps 747 mmHg 78%
    07:00 +20°C° 0 mm 3 mps 747 mmHg 72%
    08:00 +22°C° 0 mm 3 mps 747 mmHg 66%
    09:00 +25°C° 0 mm 3 mps 747 mmHg 59%
    10:00 +26°C° 0 mm 3 mps 747 mmHg 57%
    11:00 +26°C° 0 mm 3 mps 747 mmHg 54%
    12:00 +27°C° 0 mm 4 mps 747 mmHg 52%
    13:00 +27°C° 0.1 mm 4 mps 747 mmHg 52%
    14:00 +27°C° 0.1 mm 4 mps 747 mmHg 53%
    15:00 +28°C° 0 mm 4 mps 747 mmHg 56%
    16:00 +27°C° 0.2 mm 3 mps 747 mmHg 59%
    17:00 +26°C° 0.2 mm 3 mps 747 mmHg 63%
    18:00 +25°C° 0.2 mm 2 mps 747 mmHg 66%
    19:00 +24°C° 0 mm 2 mps 747 mmHg 68%
    20:00 +21°C° 0 mm 2 mps 748 mmHg 71%
    21:00 +20°C° 0 mm 2 mps 748 mmHg 73%
    22:00 +19°C° 0 mm 2 mps 748 mmHg 75%
    23:00 +20°C° 0 mm 1 mps 748 mmHg 77%

    Tomorrow, 21 June, Friday

    Time Temperature Precipitation Wind Pressure Humidity
    00:00 +19°C° 0 mm 1 mps 748 mmHg 79%
    01:00 +19°C° 0 mm 1 mps 748 mmHg 81%
    02:00 +17°C° 0 mm 2 mps 749 mmHg 83%
    03:00 +17°C° 0 mm 2 mps 749 mmHg 85%
    04:00 +18°C° 0 mm 2 mps 749 mmHg 82%
    05:00 +19°C° 0 mm 2 mps 750 mmHg 79%
    06:00 +20°C° 0 mm 2 mps 750 mmHg 76%
    07:00 +22°C° 0 mm 3 mps 750 mmHg 69%
    08:00 +25°C° 0 mm 3 mps 750 mmHg 63%
    09:00 +26°C° 0 mm 3 mps 751 mmHg 57%
    10:00 +27°C° 0 mm 3 mps 751 mmHg 53%
    11:00 +28°C° 0 mm 3 mps 751 mmHg 49%
    12:00 +29°C° 0 mm 3 mps 751 mmHg 45%
    13:00 +29°C° 0 mm 3 mps 751 mmHg 46%
    14:00 +28°C° 0 mm 2 mps 751 mmHg 47%
    15:00 +28°C° 0 mm 2 mps 751 mmHg 48%
    16:00 +28°C° 0 mm 2 mps 750 mmHg 52%
    17:00 +27°C° 0 mm 2 mps 750 mmHg 56%
    18:00 +27°C° 0 mm 1 mps 750 mmHg 60%
    19:00 +25°C° 0 mm 1 mps 750 mmHg 64%
    20:00 +23°C° 0 mm 1 mps 751 mmHg 67%
    21:00 +21°C° 0 mm 1 mps 751 mmHg 70%
    22:00 +19°C° 0 mm 0 mps 751 mmHg 72%
    23:00 +18°C° 0 mm 0 mps 751 mmHg 74%

    Day after tomorrow, 22 June, Saturday

    Time Temperature Precipitation Wind Pressure Humidity
    00:00 +17°C° 0 mm 0 mps 751 mmHg 75%
    01:00 +17°C° 0 mm 0 mps 751 mmHg 75%
    02:00 +17°C° 0 mm 0 mps 751 mmHg 74%
    03:00 +19°C° 0 mm 1 mps 751 mmHg 74%
    04:00 +20°C° 0 mm 1 mps 752 mmHg 72%
    05:00 +22°C° 0 mm 1 mps 752 mmHg 69%
    06:00 +23°C° 0 mm 1 mps 752 mmHg 67%
    07:00 +24°C° 0 mm 1 mps 752 mmHg 62%
    08:00 +26°C° 0 mm 1 mps 752 mmHg 57%
    09:00 +27°C° 0 mm 2 mps 752 mmHg 52%
    10:00 +28°C° 0 mm 2 mps 752 mmHg 49%
    11:00 +29°C° 0 mm 2 mps 752 mmHg 47%
    12:00 +30°C° 0 mm 3 mps 752 mmHg 44%
    13:00 +29°C° 0 mm 2 mps 752 mmHg 48%
    14:00 +28°C° 0 mm 2 mps 751 mmHg 52%
    15:00 +27°C° 0 mm 2 mps 751 mmHg 56%
    16:00 +27°C° 0 mm 2 mps 751 mmHg 58%
    17:00 +27°C° 0 mm 1 mps 751 mmHg 60%
    18:00 +27°C° 0 mm 1 mps 751 mmHg 61%
    19:00 +26°C° 0 mm 1 mps 751 mmHg 63%
    20:00 +24°C° 0 mm 1 mps 751 mmHg 64%
    21:00 +23°C° 0 mm 2 mps 751 mmHg 66%
    22:00 +21°C° 0 mm 2 mps 751 mmHg 67%
    23:00 +21°C° 0 mm 2 mps 751 mmHg 68%

    23 June, Sunday

    Time Temperature Precipitation Wind Pressure Humidity
    00:00 +20°C° 0 mm 2 mps 751 mmHg 69%
    01:00 +20°C° 0 mm 2 mps 751 mmHg 70%
    02:00 +20°C° 0 mm 2 mps 751 mmHg 71%
    03:00 +19°C° 0 mm 2 mps 751 mmHg 72%
    04:00 +20°C° 0 mm 3 mps 751 mmHg 70%
    05:00 +21°C° 0 mm 3 mps 751 mmHg 69%
    06:00 +22°C° 0 mm 3 mps 751 mmHg 68%
    07:00 +25°C° 0 mm 3 mps 751 mmHg 64%
    08:00 +26°C° 0 mm 4 mps 751 mmHg 60%
    09:00 +28°C° 0 mm 4 mps 751 mmHg 56%
    10:00 +29°C° 0 mm 4 mps 751 mmHg 53%
    11:00 +30°C° 0 mm 4 mps 751 mmHg 51%
    12:00 +30°C° 0 mm 4 mps 750 mmHg 49%
    13:00 +32°C° 0 mm 4 mps 750 mmHg 49%
    14:00 +32°C° 0 mm 4 mps 750 mmHg 49%
    15:00 +32°C° 0 mm 4 mps 750 mmHg 49%
    16:00 +30°C° 0 mm 4 mps 750 mmHg 54%
    17:00 +29°C° 0 mm 3 mps 750 mmHg 58%
    18:00 +29°C° 0 mm 3 mps 749 mmHg 63%
    19:00 +27°C° 0 mm 2 mps 749 mmHg 66%
    20:00 +26°C° 0 mm 2 mps 749 mmHg 69%
    21:00 +24°C° 0 mm 2 mps 749 mmHg 72%
    22:00 +24°C° 0 mm 2 mps 749 mmHg 74%
    23:00 +23°C° 0 mm 2 mps 749 mmHg 76%

    24 June, Monday

    Time Temperature Precipitation Wind Pressure Humidity
    00:00 +21°C° 0 mm 2 mps 749 mmHg 78%
    01:00 +21°C° 0 mm 2 mps 749 mmHg 79%
    02:00 +22°C° 0 mm 1 mps 749 mmHg 80%
    03:00 +21°C° 0 mm 1 mps 748 mmHg 81%
    04:00 +22°C° 0 mm 1 mps 749 mmHg 79%
    05:00 +23°C° 0 mm 1 mps 749 mmHg 77%
    06:00 +24°C° 0 mm 2 mps 749 mmHg 75%
    07:00 +25°C° 1 mm 2 mps 749 mmHg 73%
    08:00 +26°C° 1 mm 3 mps 749 mmHg 71%
    09:00 +27°C° 1 mm 3 mps 749 mmHg 69%
    10:00 +27°C° 0.7 mm 4 mps 749 mmHg 68%
    11:00 +27°C° 0.7 mm 4 mps 749 mmHg 66%
    12:00 +28°C° 0.7 mm 5 mps 749 mmHg 64%
    13:00 +27°C° 0.2 mm 5 mps 750 mmHg 61%
    14:00 +27°C° 0.2 mm 5 mps 750 mmHg 57%
    15:00 +26°C° 0.2 mm 5 mps 750 mmHg 54%
    16:00 +25°C° 0 mm 5 mps 750 mmHg 56%
    17:00 +23°C° 0 mm 4 mps 750 mmHg 58%
    18:00 +22°C° 0 mm 4 mps 750 mmHg 60%
    19:00 +20°C° 0 mm 3 mps 750 mmHg 63%
    20:00 +19°C° 0 mm 3 mps 751 mmHg 65%
    21:00 +17°C° 0 mm 3 mps 751 mmHg 67%
    22:00 +16°C° 0 mm 3 mps 751 mmHg 69%
    23:00 +15°C° 0 mm 2 mps 751 mmHg 71%

    25 June, Tuesday

    Time Temperature Precipitation Wind Pressure Humidity
    00:00 +14°C° 0 mm 2 mps 751 mmHg 73%
    01:00 +14°C° 0 mm 2 mps 751 mmHg 75%
    02:00 +14°C° 0 mm 2 mps 751 mmHg 76%
    03:00 +13°C° 0 mm 2 mps 751 mmHg 78%
    04:00 +14°C° 0 mm 2 mps 751 mmHg 76%
    05:00 +15°C° 0 mm 2 mps 751 mmHg 74%
    06:00 +16°C° 0 mm 3 mps 751 mmHg 72%
    07:00 +17°C° 0 mm 3 mps 751 mmHg 66%
    08:00 +19°C° 0 mm 3 mps 751 mmHg 60%
    09:00 +20°C° 0 mm 4 mps 751 mmHg 54%
    10:00 +20°C° 0.1 mm 4 mps 751 mmHg 55%
    11:00 +20°C° 0.1 mm 4 mps 751 mmHg 56%
    12:00 +20°C° 0.1 mm 4 mps 751 mmHg 56%
    13:00 +20°C° 0 mm 4 mps 751 mmHg 55%
    14:00 +20°C° 0 mm 4 mps 751 mmHg 54%
    15:00 +20°C° 0 mm 4 mps 751 mmHg 53%
    16:00 +20°C° 0.1 mm 4 mps 751 mmHg 58%
    17:00 +19°C° 0.1 mm 4 mps 751 mmHg 62%
    18:00 +18°C° 0.1 mm 4 mps 751 mmHg 67%
    19:00 +16°C° 0 mm 3 mps 751 mmHg 72%
    20:00 +14°C° 0 mm 3 mps 751 mmHg 77%
    21:00 +12°C° 0 mm 3 mps 751 mmHg 82%
    22:00 +11°C° 0 mm 3 mps 751 mmHg 84%
    23:00 +11°C° 0 mm 3 mps 751 mmHg 85%
    Show more